Regional Weather Roundup
Issued by NWS Wakefield, VA

Home | Current Version | Previous Version | Graphics & Text | Print | Product List | Glossary On
Versions: 1 2 3 4 5 6 7 8 9 10 11 12 13 14 15 16 17 18 19 20 21 22 23 24 25 26 27 28 29 30 31 32 33 34 35 36 37 38 39 40 41 42 43 44 45 46 47 48 49 50
000
ASUS41 KAKQ 310910
RWRAKQ

REGIONAL WEATHER ROUNDUP
NATIONAL WEATHER SERVICE WAKEFIELD VA
400 AM EST SAT JAN 31 2015

Note: "fair" indicates few or no clouds below 12,000 feet with no
significant weather and/or obstructions to visibility. * = Denotes
station may not report precipitation (e.g., rain,snow,etc.),
thunder or fog.

VAZ042-051-052>054-056-311000-
NORTHERN VIRGINIA

CITY           SKY/WX    TMP DP  RH WIND       PRES   REMARKS
WASH NATIONAL  CLEAR     21   3  45 NW16G23   30.31S WCI   7
DULLES         CLEAR     18   3  52 NW17G23   30.29F WCI   3
FORT BELVOIR   CLEAR     19   3  48 NW13      30.31S WCI   7
QUANTICO       CLEAR     20   4  50 N9        30.33S
FREDERICKSBRG* CLEAR     21   7  53 N6        30.30S
STAFFORD*      CLEAR     19   3  50 CALM      30.34F
WARRENTON      CLEAR     21  10  62 NW12G18   30.28F WCI   9
CULPEPER*      CLEAR     19   7  58 N3        30.28F
MANASSAS*      CLEAR     19   9  63 NW17G24   30.30S WCI   4
LEESBURG*      CLEAR     19   9  63 N10G22    30.30F WCI   8
WINCHESTER     CLEAR     19   1  45 W7        30.29F
FRONT ROYAL*   FAIR      21   3  45 CALM      30.28S
LURAY*         FAIR      23   5  46 NW5       30.27S
$$

VAZ048-049-060>072-079>083-311000-
CENTRAL AND SOUTH CENTRAL VIRGINIA

CITY           SKY/WX    TMP DP  RH WIND       PRES   REMARKS
RICHMOND       CLEAR     21   8  57 N6        30.29S
CHESTERFIELD*  FAIR      19   0  42 N3        30.29F
PETERSBURG*    CLEAR     20  12  70 CALM      30.30S
HANOVER        CLEAR     19   7  59 CALM      30.30F
TAPPAHANNOCK*  CLEAR     22   2  41 NW6       30.30S
QUINTON*       FAIR      21   6  52 NW3       30.30R
CHARLOTTSVILLE CLEAR     22   2  42 CALM      30.26F
GORDONSVILLE*  FAIR      16   7  66 CALM      30.27S
ORANGE*        CLEAR     16  12  86 CALM      30.29F
LOUISA*        CLEAR     14   9  79 CALM      30.26S
BUMPASS*       FAIR      18   7  64 CALM      30.28S
FARMVILLE*     CLEAR     19  11  70 CALM      30.27F
CREWE*         FAIR      23   9  55 CALM      30.27S
FORT PICKETT*  FAIR      22   8  53 W3        30.27F
CHASE CITY*    FAIR      26  13  56 W3        30.29S
CLARKSVILLE*   FAIR      27  10  50 W5        30.30R
SOUTH HILL*    CLEAR     23  10  58 CALM      30.34S
LAWRENCEVILLE* FAIR      23  10  56 CALM      30.28F
EMPORIA*       CLEAR     23  10  58 W3        30.31F
$$

VAZ088>098-311000-
SOUTHEAST VIRGINIA

CITY           SKY/WX    TMP DP  RH WIND       PRES   REMARKS
NORFOLK        CLEAR     26   3  37 NW13G29   30.26R WCI  15
VIRGINIA BEACH CLEAR     26   7  44 NW24G36   30.24R WCI  11
NORFOLK NAVAL  CLEAR     28   6  39 NW17G28   30.28S WCI  16
WEST POINT*    CLEAR     25   4  40 NW8G16    30.31S
SALUDA*        FAIR      22   6  50 NW17G29   30.27S WCI   8
NEWPORT NEWS   CLEAR     26   6  42 N12       30.27S WCI  16
LANGLEY AFB    CLEAR     24   3  40 NW17G32   30.27S WCI  11
FORT EUSTIS    CLEAR     24   8  50 N13       30.26R WCI  13
WILLIAMSBURG*    N/A     25   9  50 NW12      30.29S WCI  14
HR EXEC AP*    FAIR      25   7  46 NW5       30.29S
FRANKLIN*      CLEAR     23   9  55 NW5       30.29S
WAKEFIELD      CLEAR     24   7  48 VRB5      30.29S
$$

VAZ020-022-025-037-045-311000-
WEST CENTRAL AND SOUTHWEST VIRGINIA

CITY           SKY/WX    TMP DP  RH WIND       PRES   REMARKS
STAUNTON*      CLEAR     15   7  71 CALM      30.27S
WAYNESBORO*    FAIR      20   0  40 W8        30.23S
HOT SPRINGS VA CLEAR      9   2  74 NW17G24   30.05F WCI  -9
LYNCHBURG      CLEAR     16   9  74 NE5       30.27S
DANVILLE       CLEAR     19  10  68 CALM      30.32S
SOUTH BOSTON*  FAIR      24   7  47 W3        30.31R
MARTINSVILLE   CLEAR     19  11  68 CALM      30.32S
ROANOKE        CLEAR     25   3  38 NW15      30.29S WCI  13
BLACKSBURG     CLEAR     17   9  69 W8        30.28F
DUBLIN*        CLEAR     19  11  70 CALM      30.27F
MARION*        CLEAR     21  10  63 SW9       30.29S
HILLSVILLE*    CLEAR     20   8  60 NW13      30.21F WCI   7
RICHLANDS*     FAIR      17   8  65 W3        30.28F
WISE*          CLEAR     19  12  73 CALM      30.29F
ABINGDON*      CLEAR     22  13  66 CALM      30.32S
$$

MDZ021>025-VAZ099-100-311000-
SOUTHERN MARYLAND AND THE DELMARVA PENINSULA

CITY           SKY/WX    TMP DP  RH WIND       PRES   REMARKS
PATUXENT RIVER CLEAR     21   4  47 NW29G38   30.26S WCI   3
BAY BRIDGE APT   N/A     21   3  45 NW24G30   30.27S WCI   4
LEONARDTOWN    CLEAR     19   3  49 W10G16    30.29S WCI   8
DOVER          CLEAR     17   1  49 NW14G26   30.21S WCI   3
GEORGETOWN     CLEAR     19   0  43 NW8G21    30.21S
EASTON         CLEAR     22   6  51 N20       30.27  WCI   7
CAMBRIDGE      CLEAR     23   3  42 NW16G28   30.24S WCI  10
SALISBURY      CLEAR     22   3  44 NW20G31   30.21S WCI   7
OCEAN CITY     CLEAR     20   3  48 NW18G28   30.19R WCI   5
WALLOPS ISLAND CLEAR     20   4  50 NW20G28   30.20S WCI   4
ACCOMACK*      CLEAR     23   7  50 NW21G37   30.22S WCI   8
$$

NCZ012>017-030>032-311000-
NORTH CENTRAL AND EASTERN NORTH CAROLINA

CITY           SKY/WX    TMP DP  RH WIND       PRES   REMARKS
ROANOKE RAPIDS FAIR      28  12  50 NW5       30.30S
RALEIGH        CLEAR     27   8  44 CALM      30.32S
ELIZABETH CITY FAIR      26  10  50 NW15G23   30.27R WCI  14
AHOSKIE*       CLEAR     26  10  50 NW3       30.30S
EDENTON*       FAIR      29  14  54 NW7       30.28R
CURRITUCK*     FAIR      28   7  41 NW9G22    30.26R
KILL DEVIL HLS FAIR      28  10  45 NW13G18   30.22S WCI  18
MANTEO         FAIR      28   9  43 NW22G32   30.24S WCI  15
CAPE HATTERAS  CLEAR     31  13  47 NW12G23   30.24R WCI  22
TARBORO*       FAIR      27  13  55 NW6       30.32S
GOLDSBORO      CLEAR     36  12  38 NW9G18    30.26R
WASHINGTON     CLEAR     27  13  56 NW3       30.29S
GREENVILLE     CLEAR     28  14  54 CALM      30.31S
NEW BERN       CLEAR     30  12  47 NW8       30.31R
WILMINGTON     CLEAR     30  11  45 N10       30.31R WCI  21
$$

VAZ048-311000-
ELSEWHERE

CITY           SKY/WX    TMP DP  RH WIND       PRES   REMARKS
HARRISBURG PA  CLEAR     13  -3  49 NW15G24   30.26S WCI  -3
BALTIMORE      CLEAR     18   3  52 NW13G22   30.26S WCI   5
ANNAPOLIS      CLEAR     21   7  54 NW14G26   30.26S WCI   8
ANDREWS AFB    CLEAR     18   3  51 NW18G25   30.27R WCI   3
PHILADELPHIA   CLEAR     16  -3  43 NW22G30   30.21R WCI  -2
HENDERSON NC   CLEAR     25   8  48 CALM      30.30R
GREENSBORO     CLEAR     24   8  50 CALM      30.29S
ROCKY MOUNT    CLEAR     28  10  46 NW7       30.32R
$$

VAZ100-311000-
MARINE

STATION/POSITION TIME  TEMP    WIND        PRES    WAVE   SWELL
                       AIR SEA DIR/SP/G            HT/PER HT/PER
                 (UTC) (F)     (DEG/KT/KT) (MB)    (FT/S) (FT/S)
BRANDYWINE LGT   0900   19 34  340/ 26/ 33 1021.9R
CAPE MAY NJ      0900   20 34              1021.3R
LEWES DE         0900   20 34  320/ 29/ 34 1022.2S
15NM E FENWICK I 0900   22 39              1020.0R   8/ 7
OCEAN-CITY-INLET 0900   21 37  340/ 17/ 21 1021.6R
WACHAPREAGUE VA  0900   23 34  320/  5/ 14 1023.0S
THOMAS POINT MD  0900   20 34  330/ 19/ 23 1025.5F
GOOSES REEF MD   0900   22 36  VRB 21/ 27  1023.9S   3/ 3
COVE POINT MD    0900   20     340/ 23/ 31 1024.5R
SOLOMONS ISLAND  0900      36                N/A
BISHOPS HEAD MD  0900   22 30  320/ 18/ 23 1023.5F
PINEY POINT MD   0900          340/ 28/ 31   N/A
POTOMAC MD       0900   23 37  330/ 21/ 27 1023.5S   4/ 4
CAMBRIDGE MD     0900   23 33  320/ 18/ 27 1023.9F
LEWISETTA VA     0900   22 34  340/ 19/ 25 1025.2R
RAPPAHANNOCK LGT 0900          320/ 28/ 34 1024.5R
STINGRAY PT      0900   24 38  320/ 19/ 25 1025.0R   2/ 3
YORK RVR RNG VA  0900   25     340/ 25/ 33 1024.4R
YORKTOWN VA      0900   25 38  330/ 21/ 25 1024.8F
JAMESTOWN VA     0900   23 38  360/ 12/ 16   N/A     0
DOMINION TERM VA 0900   27     340/ 12/ 21 1025.0R
KIPTOPEKE VA     0900      40  340/ 28/ 34   N/A
CHES BAY BRIDGE  0900   26 38  310/ 26/ 33 1024.3R
CAPE HENRY VA    0900   26     320/ 27/ 32 1022.9R
CHESAPEAKE LGHT  0800   26     320/ 33/ 36 1023.5R
WILLOUBY STN VA  0900   26     330/ 24/ 30 1025.3S
S CRANEY ISL VA  0900          340/ 14/ 21 1024.9R
CAPE HENRY BUOY  0900      42                N/A     7/ 5
1ST LANDING BUOY 0900   27 39  330/ 27/ 37 1023.7R   4/ 4
CAPE CHARLES BUO 0900      39                N/A     6/ 4   2/10
OFFSHORE WE BUOY 0900      43                N/A    10/ 6
64NM E OF VA BCH 0900   30 49  320/ 31/ 39 1020.3S  11/ 8
DUCK PIER NC     0900   29 42  330/ 31/ 35 1022.4F
44100 DUCK FRF   0900      44                N/A     8/ 7
44056 DUCK FRF   0900      42                N/A     6/ 7
OREGON INLET NC  0900   29 40  320/ 15/ 24 1023.5R
HATTERAS NC      0900   33 41  330/ 21/ 29 1023.9R


USA.gov is the U.S. government's official web portal to all federal, state and local government web resources and services.